Location: Gold Fund Mine
(38.3819°N, 119.0996°W)
Time: 23:49:49
(UTC+00:00)

deb Chang Zheng 4 - Pass Details

Date: 18 September 2020
Orbit: 602 x 626 km, 98.6° (Epoch: 20 October)

Event Time Altitude Azimuth Distance (km) Brightness Sun altitude
Rises 12:41:08 0° 8° (N) 2,893 7.3 -12.5°
Reaches altitude 10° 12:43:21 10° 4° (N) 1,979 6.4 -12.1°
Maximum altitude 12:47:34 57° 286° (WNW) 723 3.6 -11.3°
Drops below altitude 10° 12:51:43 10° 208° (SSW) 1,951 5.8 -10.5°
Sets 12:53:54 0° 205° (SSW) 2,847 6.6 -10.0°
